Location: Barcelona
(41.3829°N, 2.1774°E)
Time: 00:32:45
(UTC+00:00)

ISS - Pass Details

Date: 27 April 2024
Orbit: 409 x 414 km, 51.6° (Epoch: 23 May)

Event Time Altitude Azimuth Distance (km) Brightness Sun altitude
Exits shadow 04:13:49 - 287° (WNW) 1,995 -0.8 -7.7°
Reaches altitude 10° 04:15:27 10° 303° (WNW) 1,477 -1.3 -7.4°
Maximum altitude 04:17:44 17° 347° (NNW) 1,119 -1.4 -7.0°
Drops below altitude 10° 04:20:02 10° 30° (NNE) 1,478 0.0 -6.6°
Sets 04:22:38 0° 52° (NE) 2,340 2.0 -6.2°
